Weather History for KONZ - April, 2013

Change the Weather History Date:

Monday, April 1, 2013

  Actual Average (KDTW) Record (KDTW)
Temperature  
Mean Temperature 38 °F 44 °F  
Max Temperature 46 °F 53 °F 80 °F (2010)
Min Temperature 28 °F 34 °F 14 °F (1923)
Degree Days  
Heating Degree Days 27 21  
Month to date heating degree days 21  
Since 1 July heating degree days 5436  
Cooling Degree Days 0 0  
Month to date cooling degree days 0  
Year to date cooling degree days 0  
Moisture  
Dew Point 13 °F    
Average Humidity 42    
Maximum Humidity 70    
Minimum Humidity 22    
Precipitation  
Precipitation 0.00 in 0.09 in 1.30 in (1959)
Month to date precipitation 0.09  
Year to date precipitation 6.35  
Snow  
Snow 0.00 in 0.10 in 3.00 in (1993)
Month to date snowfall 0.1  
Since 1 July snowfall 40.9  
Snow Depth -    
Sea Level Pressure  
Sea Level Pressure 29.92 in    
Wind  
Wind Speed 14 mph (WNW)    
Max Wind Speed 20 mph    
Max Gust Speed 28 mph    
Visibility 10 miles    
Events Snow    
T = Trace of Precipitation, MM = Missing Value Source: NWS Daily Summary

Daily Weather History Graph

Daily Weather History Graph

Search for Another Location

Airport or City:

Trip Planner

Search our weather history database for the weather conditions in past years. The results will help you decide how hot, cold, wet, or windy it might be!

Date:

Astronomy

Apr. 01, 2013 Rise Set
Actual Time 7:14 AM EDT 7:58 PM EDT
Civil Twilight 6:46 AM EDT 8:26 PM EDT
Nautical Twilight 6:13 AM EDT 9:00 PM EDT
Astronomical Twilight 5:38 AM EDT 9:35 PM EDT
Moon 1:10 AM EDT (4/1) 10:55 AM EDT (4/1)
Length of Visible Light 13h 40m
Length of Day
12h 43m
Waning Gibbous, 67% of the Moon is Illuminated
Apr 1
Waning Gibbous
Apr 3
Last Quarter
Apr 10
New
Apr 18
First Quarter
Apr 25
Full

Hourly Weather History & Observations

Time (EDT) Temp. Windchill Dew Point Humidity Pressure Visibility Wind Dir Wind Speed Gust Speed Precip Events Conditions
12:14 AM 46.4 °F 40.4 °F 30.2 °F 53% 29.67 in 10.0 mi WNW 13.8 mph 18.4 mph N/A   Mostly Cloudy
12:34 AM 44.6 °F 38.1 °F 30.2 °F 57% 29.67 in 10.0 mi West 13.8 mph - N/A   Mostly Cloudy
12:54 AM 44.6 °F 37.2 °F 30.2 °F 57% 29.67 in 10.0 mi West 17.3 mph 25.3 mph N/A   Scattered Clouds
1:14 AM 42.8 °F 35.8 °F 24.8 °F 49% 29.69 in 10.0 mi WNW 13.8 mph 26.5 mph N/A   Scattered Clouds
1:34 AM 41.0 °F 33.1 °F 24.8 °F 53% 29.70 in 10.0 mi WNW 15.0 mph 24.2 mph N/A   Clear
1:54 AM 39.2 °F 31.6 °F 26.6 °F 61% 29.70 in 10.0 mi WNW 12.7 mph 21.9 mph N/A   Clear
2:14 AM 39.2 °F 32.0 °F 26.6 °F 61% 29.70 in 10.0 mi WNW 11.5 mph - N/A   Clear
2:34 AM 39.2 °F 31.6 °F 26.6 °F 61% 29.71 in 10.0 mi West 12.7 mph 16.1 mph N/A   Clear
2:54 AM 39.2 °F 32.5 °F 26.6 °F 61% 29.72 in 10.0 mi WNW 10.4 mph 18.4 mph N/A   Mostly Cloudy
3:14 AM 39.2 °F 30.2 °F 26.6 °F 61% 29.73 in 10.0 mi WNW 17.3 mph 25.3 mph N/A   Overcast
3:34 AM 35.6 °F 26.6 °F 26.6 °F 70% 29.75 in 10.0 mi NNW 13.8 mph 25.3 mph N/A   Overcast
3:54 AM 35.6 °F 24.8 °F 24.8 °F 65% 29.76 in 10.0 mi NW 19.6 mph 27.6 mph N/A   Mostly Cloudy
4:14 AM 35.6 °F 27.5 °F 24.8 °F 65% 29.77 in 10.0 mi NW 11.5 mph 23.0 mph N/A   Mostly Cloudy
4:34 AM 35.6 °F 26.6 °F 24.8 °F 65% 29.78 in 10.0 mi NW 13.8 mph 23.0 mph N/A   Overcast
4:54 AM 35.6 °F 25.9 °F 23.0 °F 60% 29.79 in 10.0 mi NW 16.1 mph 24.2 mph N/A   Overcast
5:14 AM 33.8 °F 23.9 °F 23.0 °F 65% 29.80 in 10.0 mi NW 15.0 mph 21.9 mph N/A   Overcast
5:34 AM 33.8 °F 24.3 °F 19.4 °F 56% 29.81 in 10.0 mi NW 13.8 mph 19.6 mph N/A   Mostly Cloudy
5:54 AM 33.8 °F 24.3 °F 15.8 °F 48% 29.83 in 10.0 mi NW 13.8 mph 18.4 mph N/A   Scattered Clouds
6:14 AM 32.0 °F 20.8 °F 12.2 °F 44% 29.84 in 10.0 mi NW 17.3 mph 26.5 mph N/A   Clear
6:34 AM 30.2 °F 20.2 °F 12.2 °F 47% 29.86 in 10.0 mi NNW 12.7 mph 16.1 mph N/A   Clear
6:54 AM 30.2 °F 20.8 °F 10.4 °F 44% 29.87 in 10.0 mi NNW 11.5 mph 16.1 mph N/A   Clear
7:15 AM 30.2 °F 19.3 °F 10.4 °F 44% 29.88 in 10.0 mi NW 15.0 mph - N/A   Clear
7:34 AM 30.2 °F 21.9 °F 12.2 °F 47% 29.89 in 10.0 mi NW 9.2 mph 23.0 mph N/A   Clear
8:14 AM 30.2 °F 21.3 °F 14.0 °F 51% 29.91 in 10.0 mi NW 10.4 mph - N/A   Scattered Clouds
8:34 AM 30.2 °F 22.6 °F 14.0 °F 51% 29.92 in 10.0 mi WNW 8.1 mph - N/A Snow Light Snow
8:54 AM 32.0 °F 23.0 °F 15.8 °F 51% 29.92 in 10.0 mi WNW 11.5 mph 18.4 mph N/A   Mostly Cloudy
9:14 AM 32.0 °F 22.5 °F 12.2 °F 44% 29.93 in 10.0 mi NW 12.7 mph 19.6 mph N/A   Scattered Clouds
9:34 AM 33.8 °F 23.9 °F 12.2 °F 41% 29.94 in 10.0 mi NNW 15.0 mph - N/A   Mostly Cloudy
10:14 AM 33.8 °F 23.9 °F 12.2 °F 41% 29.94 in 10.0 mi NW 15.0 mph 26.5 mph N/A   Mostly Cloudy
10:34 AM 33.8 °F 23.9 °F 12.2 °F 41% 29.95 in 10.0 mi WNW 15.0 mph 21.9 mph N/A   Mostly Cloudy
10:54 AM 35.6 °F 27.1 °F 10.4 °F 35% 29.96 in 10.0 mi NNW 12.7 mph 23.0 mph N/A   Scattered Clouds
11:14 AM 35.6 °F 25.9 °F 8.6 °F 33% 29.96 in 10.0 mi NW 16.1 mph 26.5 mph N/A   Scattered Clouds
11:34 AM 35.6 °F 27.5 °F 6.8 °F 30% 29.97 in 10.0 mi NW 11.5 mph 25.3 mph N/A   Scattered Clouds
11:54 AM 37.4 °F 28.9 °F 6.8 °F 28% 29.97 in 10.0 mi NW 13.8 mph 21.9 mph N/A   Clear
12:14 PM 35.6 °F 26.2 °F 6.8 °F 30% 29.98 in 10.0 mi NW 15.0 mph 25.3 mph N/A   Scattered Clouds
12:35 PM 37.4 °F 27.5 °F 8.6 °F 30% 29.98 in 10.0 mi NW 18.4 mph - N/A   Scattered Clouds
1:14 PM 39.2 °F 32.5 °F 8.6 °F 28% 29.98 in 10.0 mi WNW 10.4 mph 20.7 mph N/A   Mostly Cloudy
1:35 PM 37.4 °F 28.5 °F 8.6 °F 30% 29.98 in 10.0 mi WNW 15.0 mph - N/A   Mostly Cloudy
1:54 PM 37.4 °F 28.9 °F 8.6 °F 30% 29.98 in 10.0 mi WNW 13.8 mph 19.6 mph N/A   Mostly Cloudy
2:14 PM 37.4 °F 28.5 °F 6.8 °F 28% 29.97 in 10.0 mi WNW 15.0 mph 19.6 mph N/A   Mostly Cloudy
2:34 PM 37.4 °F 28.9 °F 5.0 °F 26% 29.98 in 10.0 mi WNW 13.8 mph 19.6 mph N/A   Mostly Cloudy
2:54 PM 39.2 °F 31.6 °F 6.8 °F 26% 29.97 in 10.0 mi West 12.7 mph 19.6 mph N/A   Mostly Cloudy
3:14 PM 41.0 °F 33.9 °F 5.0 °F 23% 29.97 in 10.0 mi NW 12.7 mph 23.0 mph N/A   Mostly Cloudy
3:34 PM 39.2 °F 31.2 °F 5.0 °F 24% 29.97 in 10.0 mi NW 13.8 mph 17.3 mph N/A   Overcast
3:54 PM 41.0 °F 34.3 °F 5.0 °F 23% 29.97 in 10.0 mi West 11.5 mph 23.0 mph N/A   Overcast
4:14 PM 39.2 °F 31.2 °F 3.2 °F 22% 29.98 in 10.0 mi WNW 13.8 mph 24.2 mph N/A   Mostly Cloudy
4:34 PM 39.2 °F 30.5 °F 3.2 °F 22% 29.98 in 10.0 mi West 16.1 mph 21.9 mph N/A   Mostly Cloudy
4:54 PM 39.2 °F 30.8 °F 3.2 °F 22% 29.98 in 10.0 mi WNW 15.0 mph 25.3 mph N/A   Mostly Cloudy
5:14 PM 37.4 °F 27.8 °F 3.2 °F 24% 29.98 in 10.0 mi NW 17.3 mph 23.0 mph N/A   Overcast
5:34 PM 37.4 °F 28.5 °F 5.0 °F 26% 29.98 in 10.0 mi NW 15.0 mph - N/A   Overcast
5:54 PM 37.4 °F 29.3 °F 5.0 °F 26% 29.99 in 10.0 mi WNW 12.7 mph 24.2 mph N/A   Mostly Cloudy
6:14 PM 37.4 °F 29.3 °F 5.0 °F 26% 30.00 in 10.0 mi West 12.7 mph 26.5 mph N/A   Scattered Clouds
6:34 PM 35.6 °F 26.6 °F 6.8 °F 30% 30.00 in 10.0 mi West 13.8 mph 23.0 mph N/A   Mostly Cloudy
6:54 PM 37.4 °F 29.3 °F 6.8 °F 28% 30.01 in 10.0 mi WNW 12.7 mph 23.0 mph N/A   Mostly Cloudy
7:14 PM 35.6 °F 26.6 °F 8.6 °F 33% 30.02 in 10.0 mi WNW 13.8 mph 25.3 mph N/A   Scattered Clouds
7:34 PM 35.6 °F 26.2 °F 6.8 °F 30% 30.02 in 10.0 mi WNW 15.0 mph - N/A   Mostly Cloudy
7:55 PM 33.8 °F 25.3 °F 10.4 °F 38% 30.03 in 10.0 mi WNW 11.5 mph 18.4 mph N/A   Mostly Cloudy
8:14 PM 33.8 °F 23.5 °F 10.4 °F 38% 30.03 in 10.0 mi NW 16.1 mph 21.9 mph N/A   Mostly Cloudy
8:34 PM 33.8 °F 24.3 °F 10.4 °F 38% 30.04 in 10.0 mi WNW 13.8 mph 21.9 mph N/A   Mostly Cloudy
8:54 PM 32.0 °F 20.5 °F 10.4 °F 41% 30.05 in 10.0 mi NW 18.4 mph - N/A   Mostly Cloudy
9:14 PM 32.0 °F 21.6 °F 12.2 °F 44% 30.06 in 10.0 mi NW 15.0 mph 20.7 mph N/A   Mostly Cloudy
9:34 PM 30.2 °F 21.3 °F 14.0 °F 51% 30.06 in 10.0 mi NW 10.4 mph 19.6 mph N/A   Scattered Clouds
9:54 PM 30.2 °F 20.8 °F 12.2 °F 47% 30.07 in 10.0 mi NW 11.5 mph - N/A   Mostly Cloudy
10:14 PM 30.2 °F 21.9 °F 12.2 °F 47% 30.08 in 10.0 mi WNW 9.2 mph - N/A   Scattered Clouds
10:34 PM 30.2 °F 21.3 °F 12.2 °F 47% 30.08 in 10.0 mi WNW 10.4 mph - N/A   Scattered Clouds
10:54 PM 30.2 °F 21.9 °F 12.2 °F 47% 30.08 in 10.0 mi WNW 9.2 mph - N/A   Scattered Clouds
11:14 PM 30.2 °F 21.9 °F 12.2 °F 47% 30.08 in 10.0 mi WNW 9.2 mph - N/A   Mostly Cloudy
11:34 PM 30.2 °F 21.9 °F 12.2 °F 47% 30.08 in 10.0 mi WNW 9.2 mph - N/A   Overcast
11:54 PM 28.4 °F 21.2 °F 12.2 °F 51% 30.08 in 10.0 mi WNW 6.9 mph - N/A   Scattered Clouds